Back to catalog

STARLINK-2367

AliveCommunicationsVLEO
NORAD 47907·PAYLOAD·🇺🇸 United States

Launched Mar 14, 2021 from Cape Canaveral Space Force Station

Loading…

Next Passes (next 24 hours)

TLE

FreshSource: CelesTrak SupGP

Epoch: Sep 14, 2026, 13:06 UTC

1 47907C 21021AZ  26257.54631944  .00040457  00000+0  13014-2 0  2578
2 47907  53.1568 122.2290 0001111  92.1175  89.7966 15.31671404    12

Track STARLINK-2367 in real time with AllMySat

Download on the App Store